Meteo pe oră la Bolshoe Lykovo

Astăzi, 8 Mai, Sâmbătă

Timp Temperatura Precipitaţii Vânt Presiune Umiditate
00:00 +8°C° 0.5 mm 5 m/s 744 mmHg 76%
01:00 +8°C° 0.5 mm 5 m/s 744 mmHg 80%
02:00 +8°C° 0.5 mm 6 m/s 744 mmHg 85%
03:00 +8°C° 1.3 mm 7 m/s 743 mmHg 88%
04:00 +7°C° 1.3 mm 8 m/s 742 mmHg 90%
05:00 +7°C° 1.3 mm 9 m/s 742 mmHg 93%
06:00 +7°C° 0.6 mm 8 m/s 741 mmHg 93%
07:00 +7°C° 0.6 mm 8 m/s 741 mmHg 93%
08:00 +8°C° 0.6 mm 7 m/s 740 mmHg 93%
09:00 +8°C° 2.1 mm 7 m/s 740 mmHg 94%
10:00 +8°C° 2.1 mm 7 m/s 740 mmHg 95%
11:00 +9°C° 2.1 mm 7 m/s 739 mmHg 95%
12:00 +9°C° 1.7 mm 6 m/s 739 mmHg 95%
13:00 +9°C° 1.7 mm 6 m/s 739 mmHg 96%
14:00 +9°C° 1.7 mm 5 m/s 738 mmHg 96%
15:00 +9°C° 0.1 mm 5 m/s 738 mmHg 95%
16:00 +10°C° 0.1 mm 4 m/s 739 mmHg 93%
17:00 +10°C° 0.1 mm 4 m/s 739 mmHg 92%
18:00 +8°C° 0.1 mm 4 m/s 739 mmHg 93%
19:00 +8°C° 0.1 mm 4 m/s 739 mmHg 94%
20:00 +8°C° 0.1 mm 4 m/s 740 mmHg 95%
21:00 +6°C° 0.9 mm 5 m/s 740 mmHg 95%
22:00 +4°C° 0.9 mm 7 m/s 741 mmHg 96%
23:00 +2°C° 0.9 mm 8 m/s 741 mmHg 96%

Mâine, 9 Mai, Duminică

Timp Temperatura Precipitaţii Vânt Presiune Umiditate
00:00 +2°C° 1.6 mm 8 m/s 742 mmHg 95%
01:00 +2°C° 1.6 mm 8 m/s 743 mmHg 95%
02:00 +1°C° 1.6 mm 8 m/s 744 mmHg 95%
03:00 +2°C° 0.2 mm 7 m/s 744 mmHg 93%
04:00 +2°C° 0.2 mm 7 m/s 745 mmHg 92%
05:00 +2°C° 0.2 mm 6 m/s 746 mmHg 91%
06:00 +3°C° 0 mm 6 m/s 746 mmHg 86%
07:00 +4°C° 0 mm 7 m/s 747 mmHg 81%
08:00 +4°C° 0 mm 7 m/s 748 mmHg 77%
09:00 +5°C° 0 mm 7 m/s 748 mmHg 73%
10:00 +5°C° 0 mm 6 m/s 749 mmHg 70%
11:00 +7°C° 0 mm 6 m/s 750 mmHg 66%
12:00 +7°C° 0 mm 6 m/s 750 mmHg 64%
13:00 +8°C° 0 mm 6 m/s 750 mmHg 61%
14:00 +8°C° 0 mm 7 m/s 751 mmHg 58%
15:00 +8°C° 0 mm 6 m/s 751 mmHg 60%
16:00 +9°C° 0 mm 5 m/s 752 mmHg 61%
17:00 +9°C° 0 mm 5 m/s 752 mmHg 62%
18:00 +7°C° 0 mm 4 m/s 753 mmHg 66%
19:00 +7°C° 0 mm 3 m/s 753 mmHg 70%
20:00 +4°C° 0 mm 3 m/s 754 mmHg 74%
21:00 +4°C° 0 mm 3 m/s 754 mmHg 75%
22:00 +4°C° 0 mm 3 m/s 755 mmHg 75%
23:00 +3°C° 0 mm 3 m/s 755 mmHg 75%

Poimâine, 10 Mai, Luni

Timp Temperatura Precipitaţii Vânt Presiune Umiditate
00:00 +3°C° 0 mm 3 m/s 755 mmHg 76%
01:00 +2°C° 0 mm 3 m/s 756 mmHg 77%
02:00 +2°C° 0 mm 3 m/s 756 mmHg 77%
03:00 +2°C° 0 mm 3 m/s 757 mmHg 77%
04:00 +2°C° 0 mm 3 m/s 757 mmHg 76%
05:00 +3°C° 0 mm 2 m/s 758 mmHg 76%
06:00 +5°C° 0 mm 3 m/s 758 mmHg 71%
07:00 +8°C° 0 mm 3 m/s 758 mmHg 65%
08:00 +10°C° 0 mm 3 m/s 758 mmHg 60%
09:00 +11°C° 0 mm 3 m/s 758 mmHg 56%
10:00 +12°C° 0 mm 4 m/s 758 mmHg 52%
11:00 +13°C° 0 mm 4 m/s 758 mmHg 48%
12:00 +13°C° 0 mm 4 m/s 758 mmHg 48%
13:00 +14°C° 0 mm 5 m/s 758 mmHg 47%
14:00 +14°C° 0 mm 5 m/s 758 mmHg 47%
15:00 +14°C° 0 mm 5 m/s 757 mmHg 51%
16:00 +14°C° 0 mm 4 m/s 757 mmHg 56%
17:00 +13°C° 0 mm 4 m/s 757 mmHg 60%
18:00 +12°C° 0 mm 4 m/s 757 mmHg 66%
19:00 +10°C° 0 mm 3 m/s 758 mmHg 71%
20:00 +8°C° 0 mm 3 m/s 758 mmHg 76%
21:00 +8°C° 0 mm 3 m/s 758 mmHg 76%
22:00 +7°C° 0 mm 3 m/s 758 mmHg 76%
23:00 +7°C° 0 mm 3 m/s 758 mmHg 77%

11 Mai, Marţi

Timp Temperatura Precipitaţii Vânt Presiune Umiditate
00:00 +5°C° 0 mm 3 m/s 758 mmHg 78%
01:00 +5°C° 0 mm 3 m/s 758 mmHg 79%
02:00 +5°C° 0 mm 3 m/s 758 mmHg 80%
03:00 +5°C° 0 mm 4 m/s 758 mmHg 79%
04:00 +5°C° 0 mm 4 m/s 758 mmHg 78%
05:00 +5°C° 0 mm 4 m/s 758 mmHg 78%
06:00 +7°C° 0 mm 5 m/s 758 mmHg 72%
07:00 +9°C° 0 mm 6 m/s 758 mmHg 66%
08:00 +11°C° 0 mm 7 m/s 758 mmHg 61%
09:00 +12°C° 0 mm 7 m/s 757 mmHg 58%
10:00 +14°C° 0 mm 7 m/s 757 mmHg 55%
11:00 +15°C° 0 mm 7 m/s 757 mmHg 52%
12:00 +16°C° 0 mm 7 m/s 757 mmHg 54%
13:00 +16°C° 0 mm 6 m/s 756 mmHg 56%
14:00 +17°C° 0 mm 6 m/s 756 mmHg 57%
15:00 +17°C° 0 mm 6 m/s 756 mmHg 61%
16:00 +16°C° 0 mm 5 m/s 756 mmHg 65%
17:00 +16°C° 0 mm 5 m/s 756 mmHg 69%
18:00 +15°C° 0 mm 4 m/s 756 mmHg 75%
19:00 +13°C° 0 mm 4 m/s 756 mmHg 80%
20:00 +11°C° 0 mm 3 m/s 756 mmHg 85%
21:00 +11°C° 0 mm 4 m/s 756 mmHg 84%
22:00 +11°C° 0 mm 4 m/s 755 mmHg 83%
23:00 +10°C° 0 mm 4 m/s 755 mmHg 82%

12 Mai, Miercuri

Timp Temperatura Precipitaţii Vânt Presiune Umiditate
00:00 +10°C° 0 mm 4 m/s 755 mmHg 84%
01:00 +10°C° 0 mm 4 m/s 754 mmHg 86%
02:00 +8°C° 0 mm 4 m/s 754 mmHg 88%
03:00 +8°C° 0 mm 4 m/s 754 mmHg 89%
04:00 +8°C° 0 mm 4 m/s 754 mmHg 90%
05:00 +8°C° 0 mm 4 m/s 754 mmHg 91%
06:00 +10°C° 0.1 mm 4 m/s 754 mmHg 89%
07:00 +10°C° 0.1 mm 5 m/s 754 mmHg 86%
08:00 +12°C° 0.1 mm 5 m/s 754 mmHg 84%
09:00 +12°C° 0.5 mm 5 m/s 753 mmHg 86%
10:00 +12°C° 0.5 mm 5 m/s 753 mmHg 88%
11:00 +11°C° 0.5 mm 6 m/s 753 mmHg 90%
12:00 +11°C° 0 mm 6 m/s 753 mmHg 88%
13:00 +13°C° 0 mm 5 m/s 753 mmHg 87%
14:00 +14°C° 0 mm 5 m/s 753 mmHg 85%
15:00 +14°C° 0 mm 5 m/s 753 mmHg 87%
16:00 +14°C° 0 mm 4 m/s 752 mmHg 88%
17:00 +14°C° 0 mm 3 m/s 752 mmHg 89%
18:00 +14°C° 0.1 mm 4 m/s 752 mmHg 90%
19:00 +14°C° 0.1 mm 4 m/s 752 mmHg 91%
20:00 +14°C° 0.1 mm 5 m/s 752 mmHg 92%
21:00 +14°C° 0.1 mm 5 m/s 752 mmHg 92%
22:00 +14°C° 0.1 mm 5 m/s 751 mmHg 93%
23:00 +13°C° 0.1 mm 5 m/s 751 mmHg 93%

13 Mai, Joi

Timp Temperatura Precipitaţii Vânt Presiune Umiditate
00:00 +13°C° 0.2 mm 5 m/s 751 mmHg 94%
01:00 +13°C° 0.2 mm 5 m/s 751 mmHg 94%
02:00 +13°C° 0.2 mm 5 m/s 750 mmHg 95%
03:00 +13°C° 0.1 mm 6 m/s 750 mmHg 94%
04:00 +14°C° 0.1 mm 6 m/s 750 mmHg 93%
05:00 +14°C° 0.1 mm 6 m/s 750 mmHg 92%
06:00 +14°C° 0.1 mm 7 m/s 750 mmHg 89%
07:00 +15°C° 0.1 mm 7 m/s 749 mmHg 86%
08:00 +16°C° 0.1 mm 7 m/s 749 mmHg 84%
09:00 +16°C° 0.2 mm 7 m/s 749 mmHg 84%
10:00 +16°C° 0.2 mm 8 m/s 749 mmHg 84%
11:00 +16°C° 0.2 mm 8 m/s 749 mmHg 85%
12:00 +16°C° 0.2 mm 8 m/s 749 mmHg 84%
13:00 +16°C° 0.2 mm 8 m/s 749 mmHg 83%
14:00 +17°C° 0.2 mm 8 m/s 749 mmHg 82%
15:00 +17°C° 0.2 mm 7 m/s 749 mmHg 82%
16:00 +17°C° 0.2 mm 6 m/s 749 mmHg 82%
17:00 +19°C° 0.2 mm 6 m/s 749 mmHg 81%
18:00 +16°C° 0.1 mm 5 m/s 749 mmHg 85%
19:00 +15°C° 0.1 mm 4 m/s 749 mmHg 89%
20:00 +14°C° 0.1 mm 4 m/s 749 mmHg 93%
21:00 +14°C° 0.1 mm 4 m/s 749 mmHg 94%
22:00 +14°C° 0.1 mm 3 m/s 749 mmHg 94%
23:00 +13°C° 0.1 mm 3 m/s 749 mmHg 95%
Arată mai mult

Formular de consimțământ

Meteoprog și furnizorii noștri de servicii pot stoca și accesa date personale, precum cookies, identificatori de dispozitiv sau alte tehnologii similare pe dispozitivul dumneavoastră și procesa astfel de date pentru a personaliza conținutul și reclamele, dar și pentru a oferi caracteristici de social media și pentru a analiza traficul.

  • Stocarea și/sau accesarea informațiilor pe dispozitivul dumneavoastră

    Cookies, identificatori de dispozitiv sau alte informații pot fi stocate sau accesate pe dispozitiv în scopurile indicate mai sus.

  • Reclame și conținut personalizat, evaluarea reclamelor și a conținutului, informații despre audiențe și dezvoltarea produselor

    Reclamele și conținutul pot fi personalizate pe baza unui profil. Pot fi adăugate date suplimentare pentru a personaliza mai bine reclamele și conținutul. Performanța reclamelor și conținutului poate fi măsurată. Pot fi obținute informații despre utilizatorii care au văzut reclamele și conținutul. Aceste date pot fi utilizate pentru a dezvolta sau îmbunătăți experiența utilizatorilor, sistemele și software-ul.

Dând clic pe ‘Sunt de acord’, permiteți utilizarea cookie-urilor menționate, a identificatorilor de dispozitiv, balizelor web sau altor tehnologii similare. Setările pot fi modificate din browser-ul dispozitivului dumneavoastră.

În anumite scopuri, interesele legitime pot prima asupra consimțământului. Puteți citi mai multe informații în acest sens în Politica privind Confidențialitatea Datelor și Cookie.